When you browse on this site, cookies collect data to enhance your experience and personalize the content and advertising you see.
Visit our Privacy Policy to learn more. By continuing to use the site, you agree to this use of cookies and data.
  • In Hungary
  • List of Countries
  • For 7 days
  • Water Temperature
  • Weather Map
  • News
  • Weather Widgets
  • user-avatar
    Login

    Hourly Weather Lyubyanoe

    Today, 25 January, Saturday

    Time Temperature Precipitation Wind Pressure Humidity
    00:00 -3°C° 0.7 mm 6 mps 735 mmHg 97%
    01:00 -2°C° 0.6 mm 6 mps 735 mmHg 97%
    02:00 -2°C° 0.6 mm 6 mps 735 mmHg 97%
    03:00 -2°C° 0.6 mm 6 mps 735 mmHg 97%
    04:00 -1°C° 0.2 mm 5 mps 735 mmHg 97%
    05:00 -1°C° 0.2 mm 5 mps 734 mmHg 97%
    06:00 -1°C° 0.2 mm 5 mps 734 mmHg 97%
    07:00 -2°C° 0.1 mm 6 mps 734 mmHg 97%
    08:00 -2°C° 0.1 mm 6 mps 734 mmHg 96%
    09:00 -2°C° 0.1 mm 6 mps 735 mmHg 96%
    10:00 -2°C° 0.1 mm 6 mps 735 mmHg 93%
    11:00 -2°C° 0.1 mm 6 mps 735 mmHg 91%
    12:00 -2°C° 0.1 mm 6 mps 735 mmHg 89%
    13:00 -2°C° 0 mm 6 mps 735 mmHg 90%
    14:00 -1°C° 0 mm 5 mps 734 mmHg 91%
    15:00 -1°C° 0 mm 5 mps 734 mmHg 91%
    16:00 -2°C° 0.3 mm 6 mps 734 mmHg 93%
    17:00 -2°C° 0.3 mm 7 mps 733 mmHg 94%
    18:00 -2°C° 0.3 mm 7 mps 733 mmHg 95%
    19:00 -4°C° 0.3 mm 8 mps 732 mmHg 90%
    20:00 -4°C° 0.3 mm 8 mps 732 mmHg 86%
    21:00 -4°C° 0.3 mm 8 mps 732 mmHg 81%
    22:00 -5°C° 0 mm 8 mps 733 mmHg 82%
    23:00 -6°C° 0 mm 7 mps 734 mmHg 82%

    Tomorrow, 26 January, Sunday

    Time Temperature Precipitation Wind Pressure Humidity
    00:00 -6°C° 0 mm 7 mps 734 mmHg 82%
    01:00 -6°C° 0 mm 7 mps 735 mmHg 83%
    02:00 -7°C° 0 mm 7 mps 735 mmHg 85%
    03:00 -7°C° 0 mm 7 mps 736 mmHg 86%
    04:00 -7°C° 0 mm 7 mps 736 mmHg 85%
    05:00 -7°C° 0 mm 7 mps 737 mmHg 84%
    06:00 -7°C° 0 mm 8 mps 737 mmHg 84%
    07:00 -7°C° 0 mm 7 mps 739 mmHg 84%
    08:00 -7°C° 0 mm 7 mps 740 mmHg 85%
    09:00 -7°C° 0 mm 7 mps 741 mmHg 86%
    10:00 -7°C° 0 mm 7 mps 742 mmHg 85%
    11:00 -6°C° 0 mm 6 mps 743 mmHg 84%
    12:00 -6°C° 0 mm 6 mps 744 mmHg 83%
    13:00 -6°C° 0 mm 6 mps 744 mmHg 83%
    14:00 -6°C° 0 mm 5 mps 745 mmHg 83%
    15:00 -6°C° 0 mm 5 mps 745 mmHg 83%
    16:00 -6°C° 0 mm 5 mps 745 mmHg 85%
    17:00 -5°C° 0 mm 4 mps 745 mmHg 86%
    18:00 -7°C° 0 mm 4 mps 745 mmHg 88%
    19:00 -7°C° 0 mm 4 mps 745 mmHg 87%
    20:00 -6°C° 0 mm 5 mps 745 mmHg 87%
    21:00 -6°C° 0 mm 5 mps 745 mmHg 86%
    22:00 -6°C° 0.1 mm 6 mps 744 mmHg 89%
    23:00 -6°C° 0.1 mm 6 mps 744 mmHg 91%

    Day after tomorrow, 27 January, Monday

    Time Temperature Precipitation Wind Pressure Humidity
    00:00 -6°C° 0.1 mm 7 mps 743 mmHg 94%
    01:00 -6°C° 0.2 mm 7 mps 743 mmHg 94%
    02:00 -4°C° 0.2 mm 7 mps 742 mmHg 94%
    03:00 -3°C° 0.2 mm 7 mps 742 mmHg 94%
    04:00 -3°C° 0.1 mm 7 mps 742 mmHg 94%
    05:00 -2°C° 0.1 mm 7 mps 741 mmHg 95%
    06:00 -2°C° 0.1 mm 8 mps 741 mmHg 95%
    07:00 -2°C° 0 mm 7 mps 742 mmHg 95%
    08:00 -2°C° 0 mm 7 mps 742 mmHg 95%
    09:00 -1°C° 0 mm 6 mps 742 mmHg 95%
    10:00 -1°C° 0 mm 6 mps 743 mmHg 96%
    11:00 -1°C° 0 mm 6 mps 743 mmHg 97%
    12:00 -1°C° 0 mm 6 mps 744 mmHg 98%
    13:00 0°C° 0.1 mm 5 mps 744 mmHg 98%
    14:00 -1°C° 0.1 mm 4 mps 744 mmHg 98%
    15:00 -1°C° 0.1 mm 4 mps 745 mmHg 98%
    16:00 0°C° 0.1 mm 3 mps 745 mmHg 98%
    17:00 +1°C° 0.1 mm 2 mps 746 mmHg 98%
    18:00 -1°C° 0.1 mm 2 mps 746 mmHg 98%
    19:00 -1°C° 0.2 mm 2 mps 746 mmHg 98%
    20:00 -1°C° 0.2 mm 2 mps 747 mmHg 98%
    21:00 -2°C° 0.2 mm 2 mps 747 mmHg 97%
    22:00 -2°C° 0.1 mm 2 mps 747 mmHg 97%
    23:00 -2°C° 0.1 mm 2 mps 747 mmHg 97%

    28 January, Tuesday

    Time Temperature Precipitation Wind Pressure Humidity
    00:00 -2°C° 0.1 mm 2 mps 747 mmHg 97%
    01:00 -2°C° 0.2 mm 2 mps 747 mmHg 97%
    02:00 -2°C° 0.2 mm 2 mps 747 mmHg 97%
    03:00 -2°C° 0.2 mm 2 mps 747 mmHg 98%
    04:00 -2°C° 0.4 mm 2 mps 747 mmHg 98%
    05:00 -1°C° 0.4 mm 2 mps 747 mmHg 98%
    06:00 -1°C° 0.4 mm 2 mps 747 mmHg 98%
    07:00 -1°C° 0.6 mm 2 mps 747 mmHg 98%
    08:00 -1°C° 0.6 mm 2 mps 747 mmHg 98%
    09:00 -1°C° 0.6 mm 2 mps 747 mmHg 98%
    10:00 -1°C° 0.3 mm 2 mps 747 mmHg 98%
    11:00 -1°C° 0.3 mm 3 mps 747 mmHg 99%
    12:00 -1°C° 0.3 mm 3 mps 747 mmHg 99%
    13:00 -1°C° 0.1 mm 3 mps 747 mmHg 98%
    14:00 -1°C° 0.1 mm 3 mps 746 mmHg 98%
    15:00 -1°C° 0.1 mm 3 mps 746 mmHg 98%
    16:00 -1°C° 0.1 mm 3 mps 746 mmHg 98%
    17:00 -1°C° 0.1 mm 3 mps 746 mmHg 97%
    18:00 -1°C° 0.1 mm 3 mps 746 mmHg 97%
    19:00 -1°C° 0 mm 3 mps 747 mmHg 97%
    20:00 -1°C° 0 mm 3 mps 747 mmHg 97%
    21:00 -1°C° 0 mm 2 mps 747 mmHg 98%
    22:00 0°C° 0 mm 3 mps 747 mmHg 98%
    23:00 0°C° 0 mm 3 mps 747 mmHg 98%

    29 January, Wednesday

    Time Temperature Precipitation Wind Pressure Humidity
    00:00 0°C° 0 mm 3 mps 747 mmHg 98%
    01:00 -1°C° 0.1 mm 3 mps 747 mmHg 97%
    02:00 -2°C° 0.1 mm 4 mps 747 mmHg 97%
    03:00 -2°C° 0.1 mm 4 mps 746 mmHg 97%
    04:00 -2°C° 0.1 mm 4 mps 746 mmHg 97%
    05:00 -3°C° 0.1 mm 4 mps 746 mmHg 97%
    06:00 -2°C° 0.1 mm 3 mps 746 mmHg 97%
    07:00 -3°C° 0.2 mm 4 mps 746 mmHg 97%
    08:00 -3°C° 0.2 mm 4 mps 746 mmHg 97%
    09:00 -3°C° 0.2 mm 4 mps 746 mmHg 97%
    10:00 -2°C° 0.1 mm 4 mps 746 mmHg 98%
    11:00 -2°C° 0.1 mm 4 mps 746 mmHg 98%
    12:00 -2°C° 0.1 mm 4 mps 746 mmHg 99%
    13:00 -2°C° 0.1 mm 4 mps 746 mmHg 98%
    14:00 -2°C° 0.1 mm 4 mps 745 mmHg 98%
    15:00 -1°C° 0.1 mm 4 mps 745 mmHg 98%
    16:00 -2°C° 0 mm 4 mps 745 mmHg 97%
    17:00 -2°C° 0 mm 4 mps 745 mmHg 97%
    18:00 -2°C° 0 mm 4 mps 745 mmHg 96%
    19:00 -2°C° 0 mm 4 mps 745 mmHg 96%
    20:00 -2°C° 0 mm 4 mps 745 mmHg 96%
    21:00 -2°C° 0 mm 4 mps 744 mmHg 96%
    22:00 -2°C° 0 mm 5 mps 744 mmHg 95%
    23:00 -2°C° 0 mm 5 mps 744 mmHg 94%

    30 January, Thursday

    Time Temperature Precipitation Wind Pressure Humidity
    00:00 -2°C° 0 mm 5 mps 743 mmHg 93%
    01:00 -4°C° 0.1 mm 5 mps 743 mmHg 93%
    02:00 -4°C° 0.1 mm 5 mps 742 mmHg 93%
    03:00 -4°C° 0.1 mm 5 mps 742 mmHg 93%
    04:00 -4°C° 0.1 mm 5 mps 741 mmHg 94%
    05:00 -4°C° 0.1 mm 5 mps 741 mmHg 95%
    06:00 -4°C° 0.1 mm 5 mps 740 mmHg 95%
    07:00 -2°C° 0.1 mm 5 mps 739 mmHg 96%
    08:00 -1°C° 0.1 mm 5 mps 739 mmHg 97%
    09:00 -1°C° 0.1 mm 5 mps 738 mmHg 98%
    10:00 -1°C° 0.4 mm 5 mps 737 mmHg 98%
    11:00 0°C° 0.4 mm 5 mps 737 mmHg 98%
    12:00 0°C° 0.4 mm 5 mps 736 mmHg 99%
    13:00 0°C° 0.6 mm 5 mps 736 mmHg 99%
    14:00 0°C° 0.6 mm 5 mps 735 mmHg 98%
    15:00 0°C° 0.6 mm 5 mps 735 mmHg 98%
    16:00 -2°C° 1.3 mm 6 mps 735 mmHg 96%
    17:00 -2°C° 1.3 mm 7 mps 736 mmHg 94%
    18:00 -2°C° 1.3 mm 8 mps 736 mmHg 93%
    19:00 -3°C° 0.1 mm 7 mps 737 mmHg 91%
    20:00 -3°C° 0.1 mm 7 mps 737 mmHg 89%
    21:00 -3°C° 0.1 mm 6 mps 737 mmHg 87%
    22:00 -3°C° 0.1 mm 6 mps 738 mmHg 87%
    23:00 -3°C° 0.1 mm 6 mps 738 mmHg 87%
    Show more